TimeEST,TemperatureF,Dew PointF,Humidity,Sea Level PressureIn,VisibilityMPH,Wind Direction,Wind SpeedMPH,Gust SpeedMPH,PrecipitationIn,Events,Conditions,WindDirDegrees,DateUTC
2:55 AM,36.5,36.0,98,29.61,10.0,SE,6.9,-,N/A,,Overcast,140,2013-12-30 07:55:00
3:35 AM,36.0,35.6,99,29.61,10.0,ESE,10.4,-,N/A,,Overcast,110,2013-12-30 08:35:00
3:55 AM,35.8,35.4,99,29.63,10.0,SE,8.1,-,N/A,,Overcast,130,2013-12-30 08:55:00
4:55 AM,35.8,35.1,97,29.63,10.0,ESE,10.4,-,N/A,,Overcast,120,2013-12-30 09:55:00
5:15 AM,36.0,34.9,96,29.64,10.0,SE,8.1,-,N/A,,Overcast,140,2013-12-30 10:15:00
5:35 AM,36.0,34.7,95,29.65,10.0,ESE,9.2,-,N/A,,Overcast,120,2013-12-30 10:35:00
6:15 AM,35.8,34.5,95,29.69,10.0,SE,6.9,-,N/A,,Overcast,140,2013-12-30 11:15:00
6:35 AM,36.0,34.2,93,29.70,10.0,South,3.5,-,N/A,,Overcast,170,2013-12-30 11:35:00
6:55 AM,35.6,32.0,87,29.74,10.0,West,10.4,-,N/A,,Overcast,280,2013-12-30 11:55:00
7:15 AM,31.1,29.3,93,29.77,10.0,Calm,Calm,-,N/A,,Overcast,0,2013-12-30 12:15:00
7:35 AM,30.0,28.2,93,29.79,10.0,Calm,Calm,-,N/A,,Overcast,0,2013-12-30 12:35:00
7:55 AM,29.5,27.5,92,29.81,10.0,Calm,Calm,-,N/A,,Overcast,0,2013-12-30 12:55:00
8:15 AM,29.3,27.3,92,29.83,10.0,Calm,Calm,-,N/A,,Overcast,0,2013-12-30 13:15:00
8:35 AM,29.1,26.8,91,29.85,10.0,Calm,Calm,-,N/A,,Overcast,0,2013-12-30 13:35:00
8:55 AM,29.3,25.9,87,29.87,10.0,Calm,Calm,-,N/A,,Overcast,0,2013-12-30 13:55:00
9:15 AM,27.5,21.9,80,29.89,10.0,WNW,12.7,20.7,N/A,,Overcast,300,2013-12-30 14:15:00
9:35 AM,25.9,19.9,78,29.91,10.0,WNW,15.0,24.2,N/A,,Overcast,300,2013-12-30 14:35:00
9:55 AM,24.8,17.6,74,29.92,10.0,NW,16.1,25.3,N/A,,Overcast,310,2013-12-30 14:55:00
10:15 AM,24.4,16.7,72,29.94,10.0,WNW,13.8,21.9,N/A,,Overcast,300,2013-12-30 15:15:00
10:35 AM,23.9,16.2,72,29.95,10.0,WNW,16.1,23.0,N/A,,Overcast,300,2013-12-30 15:35:00
10:55 AM,23.7,15.8,72,29.96,10.0,NW,17.3,21.9,N/A,,Overcast,310,2013-12-30 15:55:00
11:15 AM,22.6,14.7,72,29.97,10.0,NW,16.1,23.0,N/A,,Overcast,310,2013-12-30 16:15:00
11:35 AM,22.5,13.8,69,29.97,10.0,WNW,15.0,25.3,N/A,,Overcast,300,2013-12-30 16:35:00
11:55 AM,21.7,12.9,69,29.97,10.0,WNW,13.8,21.9,N/A,,Overcast,300,2013-12-30 16:55:00
12:15 PM,21.7,12.0,66,29.98,10.0,WNW,12.7,23.0,N/A,,Overcast,290,2013-12-30 17:15:00
12:35 PM,22.1,11.1,63,29.99,10.0,WNW,13.8,20.7,N/A,,Overcast,290,2013-12-30 17:35:00
12:55 PM,22.1,9.3,58,30.00,10.0,WNW,11.5,20.7,N/A,,Overcast,300,2013-12-30 17:55:00
1:15 PM,22.1,9.3,58,30.01,10.0,NW,12.7,18.4,N/A,,Overcast,310,2013-12-30 18:15:00
1:35 PM,21.0,8.8,59,30.02,10.0,WNW,13.8,19.6,N/A,,Overcast,300,2013-12-30 18:35:00
1:55 PM,20.3,8.4,60,30.02,10.0,WNW,12.7,18.4,N/A,,Overcast,300,2013-12-30 18:55:00
2:15 PM,20.7,7.7,57,30.03,10.0,WNW,12.7,19.6,N/A,,Scattered Clouds,290,2013-12-30 19:15:00
2:55 PM,20.3,4.6,51,30.04,10.0,WNW,11.5,19.6,N/A,,Scattered Clouds,300,2013-12-30 19:55:00
3:15 PM,19.9,4.5,51,30.06,10.0,WNW,13.8,20.7,N/A,,Scattered Clouds,300,2013-12-30 20:15:00
3:55 PM,18.3,3.9,53,30.08,10.0,WNW,12.7,21.9,N/A,,Mostly Cloudy,290,2013-12-30 20:55:00
4:15 PM,18.0,4.1,55,30.09,10.0,WNW,12.7,18.4,N/A,,Clear,300,2013-12-30 21:15:00
4:35 PM,17.4,4.8,58,30.10,10.0,WNW,9.2,-,N/A,,Scattered Clouds,300,2013-12-30 21:35:00
4:55 PM,16.3,3.9,58,30.10,10.0,NW,10.4,16.1,N/A,,Clear,310,2013-12-30 21:55:00
5:15 PM,15.8,3.7,59,30.11,10.0,NW,10.4,16.1,N/A,,Clear,320,2013-12-30 22:15:00
5:35 PM,15.3,3.4,59,30.12,10.0,NW,12.7,17.3,N/A,,Clear,310,2013-12-30 22:35:00
5:55 PM,14.9,3.4,60,30.12,10.0,NW,6.9,-,N/A,,Clear,310,2013-12-30 22:55:00
6:15 PM,14.4,2.5,59,30.13,10.0,NW,9.2,-,N/A,,Clear,310,2013-12-30 23:15:00
6:35 PM,13.8,2.7,61,30.14,10.0,WNW,6.9,-,N/A,,Clear,300,2013-12-30 23:35:00
6:55 PM,13.5,2.3,61,30.15,10.0,WNW,6.9,-,N/A,,Clear,300,2013-12-30 23:55:00
7:15 PM,13.1,1.6,60,30.15,10.0,WNW,8.1,-,N/A,,Clear,300,2013-12-31 00:15:00
7:35 PM,12.2,1.6,63,30.16,10.0,WNW,5.8,-,N/A,,Clear,300,2013-12-31 00:35:00
7:55 PM,12.4,1.2,61,30.15,10.0,WNW,5.8,-,N/A,,Clear,300,2013-12-31 00:55:00
8:15 PM,11.8,0.5,60,30.16,10.0,WNW,4.6,-,N/A,,Clear,290,2013-12-31 01:15:00
8:35 PM,11.7,0.7,61,30.16,10.0,Calm,Calm,-,N/A,,Clear,0,2013-12-31 01:35:00
8:55 PM,10.6,0.9,65,30.17,10.0,SSE,3.5,-,N/A,,Clear,160,2013-12-31 01:55:00
9:15 PM,9.9,1.2,68,30.17,10.0,Calm,Calm,-,N/A,,Clear,0,2013-12-31 02:15:00
9:35 PM,9.5,1.6,70,30.18,10.0,Calm,Calm,-,N/A,,Clear,0,2013-12-31 02:35:00
9:55 PM,9.9,0.7,66,30.18,10.0,WSW,3.5,-,N/A,,Clear,250,2013-12-31 02:55:00
10:15 PM,9.9,1.2,68,30.18,10.0,Calm,Calm,-,N/A,,Clear,0,2013-12-31 03:15:00
10:35 PM,9.9,0.7,66,30.18,10.0,Calm,Calm,-,N/A,,Clear,0,2013-12-31 03:35:00
10:55 PM,9.5,-0.8,63,30.18,10.0,Calm,Calm,-,N/A,,Clear,0,2013-12-31 03:55:00
11:15 PM,9.5,0.1,66,30.18,10.0,Calm,Calm,-,N/A,,Clear,0,2013-12-31 04:15:00
11:35 PM,9.1,0.1,67,30.18,10.0,WNW,3.5,-,N/A,,Clear,290,2013-12-31 04:35:00
11:55 PM,9.0,0.1,67,30.18,10.0,West,3.5,-,N/A,,Clear,270,2013-12-31 04:55:00